Location: Ariel
(45.9570°N, 122.5700°W)
Time: 08:37:21
(UTC-07:00)

Vanguard 3 - Pass Details

Date: 25 August 2019
Orbit: 508 x 3263 km, 33.4° (Epoch: 22 September)

Event Time Altitude Azimuth Distance (km) Brightness Sun altitude
Rises 20:41:41 0° 256° (WSW) 3,737 11.5 -7.4°
Reaches altitude 10° 20:45:52 10° 235° (SW) 2,332 9.9 -8.1°
Maximum altitude 20:48:41 15° 201° (SSW) 1,777 8.9 -8.5°
Drops below altitude 10° 20:51:04 10° 166° (SSE) 1,894 8.7 -8.9°
Enters shadow 20:52:13 - 153° (SSE) 2,141 8.9 -9.1°
Sets 20:53:54 0° 140° (SE) 2,642 - -9.3°
